Tracking 19575 objects as of 19-Feb-2019
HD Live streaming from Space Station
objects crossing your sky now

THORAD DELTA 1 DEB

Track THORAD DELTA 1 DEB now!
10-day predictions


NORAD ID: 8166
Int'l Code: 1974-089AG
Perigee: 1,436.2 km
Apogee: 1,497.4 km
Inclination: 101.7 °
Period: 115.1 minutes
Semi major axis: 7837 km
RCS: 0.0173 m2 (small)
Launch date: November 15, 1974
Source: United States (US)
Launch site: AIR FORCE WESTERN TEST RANGE (AFWTR)

Note: This is SATELLITE DEBRIS
aabbcc
Your satellite tracking list
Your tracking list is empty




NASA's NSSDC Master Catalog

Two Line Element Set (TLE):
1  8166U 74089AG  19048.13322076 +.00000016 +00000-0 +38660-3 0  9998
2  8166 101.7055 018.0279 0039069 070.2870 355.3180 12.51153021019107
Source of the keplerian elements: AFSPC